| time (UTC) | temp F | wind direction | speed MPH | gust MPH | rain 1hr in | rain 24hr in | rain mn in | humidity % | barometer mb |
| 20260507193109 | 87 | 41 | 5.0 | 8.0 | 0.00 | 0.00 | 0.00 | 72 | 1016.3 |
| 20260507192605 | 88 | 120 | 3.0 | 3.0 | 0.00 | 0.00 | 0.00 | 73 | 1016.7 |
| 20260507192103 | 88 | 139 | 3.0 | 5.0 | 0.00 | 0.00 | 0.00 | 72 | 1016.8 |
| 20260507191558 | 86 | 265 | 4.0 | 7.0 | 0.00 | 0.00 | 0.00 | 75 | 1016.6 |
| 20260507191055 | 87 | 49 | 4.0 | 7.0 | 0.00 | 0.00 | 0.00 | 72 | 1016.7 |
| 20260507190552 | 89 | 89 | 6.0 | 11.0 | 0.00 | 0.00 | 0.00 | 71 | 1016.7 |
| 20260507190051 | 89 | 97 | 3.0 | 5.0 | 0.00 | 0.00 | 0.00 | 71 | 1016.8 |
| 20260507185549 | 88 | 32 | 6.0 | 8.0 | 0.00 | 0.00 | 0.00 | 71 | 1016.7 |
| 20260507185045 | 88 | 105 | 6.0 | 9.0 | 0.00 | 0.00 | 0.00 | 70 | 1016.7 |
| 20260507184544 | 89 | 127 | 5.0 | 8.0 | 0.00 | 0.00 | 0.00 | 69 | 1016.8 |
| 20260507184041 | 89 | 68 | 3.0 | 3.0 | 0.00 | 0.00 | 0.00 | 68 | 1016.7 |
| 20260507183537 | 88 | 123 | 4.0 | 7.0 | 0.00 | 0.00 | 0.00 | 71 | 1016.9 |
| 20260507183034 | 88 | 22 | 7.0 | 9.0 | 0.00 | 0.00 | 0.00 | 71 | 1017.1 |
| 20260507182530 | 88 | 60 | 4.0 | 8.0 | 0.00 | 0.00 | 0.00 | 70 | 1017.0 |
| 20260507182026 | 89 | 88 | 6.0 | 8.0 | 0.00 | 0.00 | 0.00 | 67 | 1016.9 |
| 20260507181524 | 88 | 36 | 3.0 | 5.0 | 0.00 | 0.00 | 0.00 | 70 | 1017.2 |
| 20260507181020 | 89 | 84 | 2.0 | 3.0 | 0.00 | 0.00 | 0.00 | 70 | 1017.0 |
| 20260507180516 | 89 | 110 | 6.0 | 8.0 | 0.00 | 0.00 | 0.00 | 70 | 1016.9 |
| 20260507180013 | 89 | 137 | 1.0 | 2.0 | 0.00 | 0.00 | 0.00 | 69 | 1017.3 |
| 20260507175509 | 88 | 28 | 1.0 | 2.0 | 0.00 | 0.00 | 0.00 | 70 | 1017.3 |
| 20260507175007 | 89 | 92 | 7.0 | 9.0 | 0.00 | 0.00 | 0.00 | 68 | 1017.4 |
| 20260507174504 | 89 | 36 | 4.0 | 6.0 | 0.00 | 0.00 | 0.00 | 70 | 1017.4 |
| 20260507174002 | 88 | 52 | 3.0 | 5.0 | 0.00 | 0.00 | 0.00 | 70 | 1017.5 |
| 20260507173458 | 88 | 109 | 3.0 | 5.0 | 0.00 | 0.00 | 0.00 | 70 | 1017.8 |
| 20260507172955 | 88 | 48 | 5.0 | 8.0 | 0.00 | 0.00 | 0.00 | 70 | 1017.7 |
| 20260507172451 | 89 | 116 | 7.0 | 8.0 | 0.00 | 0.00 | 0.00 | 68 | 1017.8 |
| 20260507171948 | 88 | 84 | 5.0 | 6.0 | 0.00 | 0.00 | 0.00 | 68 | 1018.1 |
| 20260507171444 | 89 | 88 | 5.0 | 6.0 | 0.00 | 0.00 | 0.00 | 67 | 1017.8 |
| 20260507170941 | 89 | 34 | 3.0 | 5.0 | 0.00 | 0.00 | 0.00 | 67 | 1018.2 |
| 20260507170438 | 89 | 63 | 3.0 | 5.0 | 0.00 | 0.00 | 0.00 | 68 | 1017.9 |
| 20260507165934 | 88 | 158 | 3.0 | 5.0 | 0.00 | 0.00 | 0.00 | 71 | 1018.0 |
| 20260507165430 | 89 | 40 | 6.0 | 8.0 | 0.00 | 0.00 | 0.00 | 67 | 1018.2 |
| 20260507164926 | 89 | 99 | 4.0 | 6.0 | 0.00 | 0.00 | 0.00 | 70 | 1018.2 |
| 20260507164424 | 89 | 73 | 5.0 | 7.0 | 0.00 | 0.00 | 0.00 | 70 | 1018.1 |
| 20260507163920 | 88 | 97 | 3.0 | 6.0 | 0.00 | 0.00 | 0.00 | 69 | 1018.3 |
| 20260507163418 | 88 | 65 | 5.0 | 7.0 | 0.00 | 0.00 | 0.00 | 70 | 1018.6 |
| 20260507162914 | 89 | 71 | 6.0 | 8.0 | 0.00 | 0.00 | 0.00 | 71 | 1018.5 |
| 20260507162410 | 89 | 215 | 0.0 | 0.0 | 0.00 | 0.00 | 0.00 | 70 | 1018.7 |
| 20260507161908 | 88 | 10 | 5.0 | 8.0 | 0.00 | 0.00 | 0.00 | 70 | 1018.8 |
| 20260507161403 | 87 | 28 | 5.0 | 7.0 | 0.00 | 0.00 | 0.00 | 73 | 1018.8 |
| 20260507160900 | 88 | 147 | 4.0 | 6.0 | 0.00 | 0.00 | 0.00 | 74 | 1018.6 |
| 20260507160356 | 87 | 68 | 9.0 | 11.0 | 0.00 | 0.00 | 0.00 | 73 | 1018.6 |
| 20260507155852 | 88 | 85 | 7.0 | 13.0 | 0.00 | 0.00 | 0.00 | 71 | 1018.7 |
| 20260507155348 | 88 | 79 | 3.0 | 5.0 | 0.00 | 0.00 | 0.00 | 71 | 1018.6 |
| 20260507154845 | 88 | 67 | 9.0 | 11.0 | 0.00 | 0.00 | 0.00 | 73 | 1018.8 |
| 20260507154342 | 89 | 12 | 4.0 | 7.0 | 0.00 | 0.00 | 0.00 | 69 | 1019.1 |
| 20260507153839 | 88 | 72 | 5.0 | 8.0 | 0.00 | 0.00 | 0.00 | 71 | 1019.2 |
| 20260507153336 | 89 | 49 | 5.0 | 7.0 | 0.00 | 0.00 | 0.00 | 72 | 1018.6 |
| 20260507152832 | 89 | 23 | 6.0 | 8.0 | 0.00 | 0.00 | 0.00 | 70 | 1019.0 |
| 20260507152328 | 88 | 36 | 3.0 | 5.0 | 0.00 | 0.00 | 0.00 | 72 | 1018.9 |
| 20260507151825 | 88 | 71 | 4.0 | 5.0 | 0.00 | 0.00 | 0.00 | 72 | 1018.8 |
| 20260507151321 | 87 | 83 | 5.0 | 6.0 | 0.00 | 0.00 | 0.00 | 74 | 1018.9 |
| 20260507150818 | 89 | 25 | 6.0 | 8.0 | 0.00 | 0.00 | 0.00 | 72 | 1019.0 |
| 20260507150314 | 88 | 203 | 3.0 | 3.0 | 0.00 | 0.00 | 0.00 | 72 | 1018.9 |
| 20260507145811 | 89 | 331 | 2.0 | 3.0 | 0.00 | 0.00 | 0.00 | 72 | 1019.1 |
| 20260507145307 | 89 | 141 | 4.0 | 6.0 | 0.00 | 0.00 | 0.00 | 70 | 1018.9 |
| 20260507144805 | 89 | 32 | 3.0 | 3.0 | 0.00 | 0.00 | 0.00 | 70 | 1019.1 |
| 20260507144302 | 88 | 103 | 1.0 | 2.0 | 0.00 | 0.00 | 0.00 | 73 | 1019.1 |
| 20260507143758 | 87 | 74 | 4.0 | 5.0 | 0.00 | 0.00 | 0.00 | 73 | 1019.3 |
| 20260507143256 | 87 | 85 | 2.0 | 3.0 | 0.00 | 0.00 | 0.00 | 72 | 1019.3 |
| 20260507142751 | 88 | 24 | 3.0 | 3.0 | 0.00 | 0.00 | 0.00 | 73 | 1019.5 |
| 20260507142248 | 87 | 65 | 3.0 | 6.0 | 0.00 | 0.00 | 0.00 | 71 | 1019.2 |
| 20260507141745 | 86 | 352 | 5.0 | 8.0 | 0.00 | 0.00 | 0.00 | 73 | 1019.4 |
| 20260507141242 | 85 | 155 | 0.0 | 1.0 | 0.00 | 0.00 | 0.00 | 73 | 1019.6 |
| 20260507140738 | 85 | 138 | 1.0 | 1.0 | 0.00 | 0.00 | 0.00 | 75 | 1019.3 |
| 20260507140236 | 87 | 33 | 4.0 | 6.0 | 0.00 | 0.00 | 0.00 | 74 | 1019.1 |
| 20260507135732 | 86 | 59 | 3.0 | 5.0 | 0.00 | 0.00 | 0.00 | 72 | 1019.3 |
| 20260507135230 | 87 | 312 | 3.0 | 3.0 | 0.00 | 0.00 | 0.00 | 71 | 1019.5 |
| 20260507134726 | 86 | 66 | 4.0 | 6.0 | 0.00 | 0.00 | 0.00 | 70 | 1019.5 |
| 20260507134222 | 87 | 96 | 3.0 | 5.0 | 0.00 | 0.00 | 0.00 | 70 | 1019.5 |
| 20260507133718 | 87 | 117 | 1.0 | 2.0 | 0.00 | 0.00 | 0.00 | 69 | 1019.4 |
| 20260507133215 | 87 | 117 | 4.0 | 6.0 | 0.00 | 0.00 | 0.00 | 68 | 1019.8 |
| 20260507132713 | 87 | 82 | 3.0 | 3.0 | 0.00 | 0.00 | 0.00 | 70 | 1019.6 |
| 20260507132209 | 88 | 105 | 3.0 | 3.0 | 0.00 | 0.00 | 0.00 | 69 | 1019.5 |
| 20260507131706 | 87 | 357 | 1.0 | 2.0 | 0.00 | 0.00 | 0.00 | 69 | 1019.5 |
| 20260507131204 | 86 | 123 | 2.0 | 2.0 | 0.00 | 0.00 | 0.00 | 71 | 1019.2 |
| 20260507130700 | 86 | 94 | 5.0 | 7.0 | 0.00 | 0.00 | 0.00 | 71 | 1019.4 |
| 20260507130158 | 86 | 155 | 2.0 | 3.0 | 0.00 | 0.00 | 0.00 | 70 | 1019.3 |
| 20260507125656 | 86 | 86 | 3.0 | 3.0 | 0.00 | 0.00 | 0.00 | 71 | 1019.1 |
| 20260507125154 | 86 | 98 | 5.0 | 6.0 | 0.00 | 0.00 | 0.00 | 71 | 1019.3 |
| 20260507124649 | 85 | 176 | 2.0 | 3.0 | 0.00 | 0.00 | 0.00 | 71 | 1019.3 |
| 20260507124147 | 85 | 77 | 2.0 | 3.0 | 0.00 | 0.00 | 0.00 | 71 | 1019.1 |
| 20260507123646 | 85 | 182 | 0.0 | 0.0 | 0.00 | 0.00 | 0.00 | 72 | 1019.1 |
| 20260507123142 | 85 | 135 | 2.0 | 3.0 | 0.00 | 0.00 | 0.00 | 70 | 1019.4 |
| 20260507122637 | 86 | 154 | 2.0 | 3.0 | 0.00 | 0.00 | 0.00 | 70 | 1019.0 |
| 20260507122133 | 85 | 198 | 0.0 | 0.0 | 0.00 | 0.00 | 0.00 | 71 | 1018.9 |
| 20260507121629 | 85 | 106 | 3.0 | 5.0 | 0.00 | 0.00 | 0.00 | 71 | 1019.0 |
| 20260507121126 | 84 | 83 | 2.0 | 3.0 | 0.00 | 0.00 | 0.00 | 71 | 1018.8 |
| 20260507120622 | 85 | 182 | 0.0 | 0.0 | 0.00 | 0.00 | 0.00 | 71 | 1018.7 |
| 20260507120118 | 84 | 163 | 0.0 | 0.0 | 0.00 | 0.00 | 0.00 | 73 | 1018.7 |
| 20260507115615 | 84 | 132 | 1.0 | 1.0 | 0.00 | 0.00 | 0.00 | 74 | 1018.7 |
| 20260507115111 | 84 | 146 | 0.0 | 1.0 | 0.00 | 0.00 | 0.00 | 74 | 1018.8 |
| 20260507114607 | 83 | 184 | 0.0 | 0.0 | 0.00 | 0.00 | 0.00 | 75 | 1018.6 |
| 20260507114104 | 82 | 172 | 0.0 | 0.0 | 0.00 | 0.00 | 0.00 | 76 | 1018.3 |
| 20260507113601 | 81 | 144 | 1.0 | 1.0 | 0.00 | 0.00 | 0.00 | 78 | 1018.6 |
| 20260507113058 | 81 | 121 | 0.0 | 1.0 | 0.00 | 0.00 | 0.00 | 77 | 1018.5 |
| 20260507112556 | 81 | 176 | 0.0 | 0.0 | 0.00 | 0.00 | 0.00 | 78 | 1018.3 |
| 20260507112053 | 80 | 165 | 1.0 | 1.0 | 0.00 | 0.00 | 0.00 | 79 | 1018.2 |
| 20260507111550 | 80 | 163 | 0.0 | 0.0 | 0.00 | 0.00 | 0.00 | 78 | 1018.3 |
| 20260507111046 | 80 | 151 | 1.0 | 1.0 | 0.00 | 0.00 | 0.00 | 80 | 1018.5 |
| 20260507110543 | 79 | 169 | 0.0 | 0.0 | 0.00 | 0.00 | 0.00 | 81 | 1018.5 |
| 20260507110039 | 78 | 172 | 1.0 | 1.0 | 0.00 | 0.00 | 0.00 | 83 | 1018.3 |
| 20260507105536 | 78 | 162 | 0.0 | 0.0 | 0.00 | 0.00 | 0.00 | 82 | 1018.2 |
| 20260507105032 | 78 | 171 | 0.0 | 0.0 | 0.00 | 0.00 | 0.00 | 82 | 1018.5 |
| 20260507104530 | 77 | 189 | 0.0 | 0.0 | 0.00 | 0.00 | 0.00 | 84 | 1018.2 |
| 20260507104026 | 75 | 198 | 0.0 | 0.0 | 0.00 | 0.00 | 0.00 | 87 | 1018.1 |
| 20260507103522 | 75 | 198 | 0.0 | 0.0 | 0.00 | 0.00 | 0.00 | 88 | 1018.3 |
| 20260507103019 | 74 | 200 | 0.0 | 0.0 | 0.00 | 0.00 | 0.00 | 89 | 1018.0 |
| 20260507102516 | 74 | 193 | 0.0 | 0.0 | 0.00 | 0.00 | 0.00 | 89 | 1018.2 |
| 20260507102012 | 73 | 213 | 0.0 | 0.0 | 0.00 | 0.00 | 0.00 | 89 | 1018.0 |
| 20260507101507 | 73 | 233 | 0.0 | 0.0 | 0.00 | 0.00 | 0.00 | 90 | 1018.1 |
| 20260507101004 | 73 | 239 | 0.0 | 0.0 | 0.00 | 0.00 | 0.00 | 90 | 1018.0 |
| 20260507100501 | 73 | 202 | 0.0 | 0.0 | 0.00 | 0.00 | 0.00 | 90 | 1018.1 |
| 20260507095959 | 73 | 205 | 0.0 | 0.0 | 0.00 | 0.00 | 0.00 | 90 | 1017.9 |
| 20260507095457 | 73 | 216 | 0.0 | 0.0 | 0.00 | 0.00 | 0.00 | 90 | 1018.0 |
| 20260507094953 | 73 | 209 | 0.0 | 0.0 | 0.00 | 0.00 | 0.00 | 91 | 1017.8 |
| 20260507094450 | 72 | 176 | 0.0 | 0.0 | 0.00 | 0.00 | 0.00 | 92 | 1017.6 |
| 20260507093947 | 72 | 177 | 0.0 | 0.0 | 0.00 | 0.00 | 0.00 | 91 | 1017.5 |
| 20260507093444 | 72 | 177 | 0.0 | 0.0 | 0.00 | 0.00 | 0.00 | 91 | 1017.4 |
| 20260507092943 | 72 | 168 | 0.0 | 0.0 | 0.00 | 0.00 | 0.00 | 90 | 1017.4 |
| 20260507092438 | 73 | 153 | 1.0 | 1.0 | 0.00 | 0.00 | 0.00 | 90 | 1017.4 |
| 20260507091936 | 73 | 179 | 0.0 | 0.0 | 0.00 | 0.00 | 0.00 | 89 | 1017.4 |
| 20260507091432 | 73 | 176 | 0.0 | 0.0 | 0.00 | 0.00 | 0.00 | 89 | 1017.7 |
| 20260507090928 | 73 | 171 | 0.0 | 0.0 | 0.00 | 0.00 | 0.00 | 89 | 1017.8 |
| 20260507090424 | 73 | 172 | 0.0 | 0.0 | 0.00 | 0.00 | 0.00 | 88 | 1017.8 |
| 20260507085915 | 73 | 171 | 0.0 | 0.0 | 0.00 | 0.00 | 0.00 | 88 | 1017.9 |
| 20260507085412 | 73 | 187 | 0.0 | 0.0 | 0.00 | 0.00 | 0.00 | 88 | 1017.8 |
| 20260507084909 | 73 | 179 | 0.0 | 0.0 | 0.00 | 0.00 | 0.00 | 88 | 1017.7 |
| 20260507084406 | 73 | 174 | 0.0 | 0.0 | 0.00 | 0.00 | 0.00 | 88 | 1018.0 |
| 20260507083903 | 73 | 175 | 0.0 | 0.0 | 0.00 | 0.00 | 0.00 | 88 | 1017.9 |
| 20260507083359 | 73 | 139 | 1.0 | 1.0 | 0.00 | 0.00 | 0.00 | 88 | 1018.1 |
| 20260507082856 | 74 | 147 | 1.0 | 1.0 | 0.00 | 0.00 | 0.00 | 87 | 1018.0 |
| 20260507082351 | 74 | 182 | 0.0 | 0.0 | 0.00 | 0.00 | 0.00 | 87 | 1018.0 |
| 20260507081849 | 74 | 180 | 0.0 | 0.0 | 0.00 | 0.00 | 0.00 | 88 | 1017.8 |
| 20260507081345 | 74 | 178 | 0.0 | 0.0 | 0.00 | 0.00 | 0.00 | 88 | 1017.9 |
| 20260507080842 | 74 | 171 | 0.0 | 1.0 | 0.00 | 0.00 | 0.00 | 88 | 1017.6 |
| 20260507080338 | 74 | 176 | 0.0 | 0.0 | 0.00 | 0.00 | 0.00 | 88 | 1017.7 |
| 20260507075833 | 74 | 186 | 0.0 | 0.0 | 0.00 | 0.00 | 0.00 | 88 | 1017.8 |
| 20260507075329 | 74 | 201 | 0.0 | 0.0 | 0.00 | 0.00 | 0.00 | 88 | 1017.9 |
| 20260507074826 | 74 | 197 | 0.0 | 0.0 | 0.00 | 0.00 | 0.00 | 88 | 1017.8 |
| 20260507074324 | 74 | 212 | 0.0 | 0.0 | 0.00 | 0.00 | 0.00 | 88 | 1017.7 |
| 20260507073821 | 74 | 204 | 0.0 | 0.0 | 0.00 | 0.00 | 0.00 | 89 | 1017.8 |
| 20260507073317 | 74 | 196 | 0.0 | 0.0 | 0.00 | 0.00 | 0.00 | 89 | 1017.8 |
| 20260507072815 | 73 | 176 | 0.0 | 0.0 | 0.00 | 0.00 | 0.00 | 90 | 1017.8 |
| 20260507072312 | 74 | 175 | 0.0 | 0.0 | 0.00 | 0.00 | 0.00 | 89 | 1018.0 |
| 20260507071809 | 74 | 182 | 0.0 | 0.0 | 0.00 | 0.00 | 0.00 | 88 | 1017.9 |
| 20260507071306 | 74 | 178 | 0.0 | 0.0 | 0.00 | 0.00 | 0.00 | 88 | 1017.8 |
| 20260507070802 | 74 | 179 | 0.0 | 0.0 | 0.00 | 0.00 | 0.00 | 88 | 1017.9 |
| 20260507070300 | 75 | 182 | 0.0 | 0.0 | 0.00 | 0.00 | 0.00 | 87 | 1017.8 |
| 20260507065756 | 75 | 183 | 0.0 | 0.0 | 0.00 | 0.00 | 0.00 | 86 | 1018.1 |
| 20260507065253 | 75 | 182 | 0.0 | 0.0 | 0.00 | 0.00 | 0.00 | 87 | 1018.1 |
| 20260507064750 | 75 | 180 | 0.0 | 0.0 | 0.00 | 0.00 | 0.00 | 88 | 1018.0 |
| 20260507064249 | 75 | 175 | 0.0 | 0.0 | 0.00 | 0.00 | 0.00 | 87 | 1018.1 |
| 20260507063746 | 75 | 188 | 0.0 | 0.0 | 0.00 | 0.00 | 0.00 | 87 | 1018.2 |
| 20260507063243 | 75 | 186 | 0.0 | 0.0 | 0.00 | 0.00 | 0.00 | 87 | 1018.3 |
| 20260507062740 | 75 | 187 | 0.0 | 0.0 | 0.00 | 0.00 | 0.00 | 87 | 1018.3 |
| 20260507062237 | 74 | 181 | 0.0 | 0.0 | 0.00 | 0.00 | 0.00 | 88 | 1018.3 |
| 20260507061735 | 75 | 179 | 0.0 | 0.0 | 0.00 | 0.00 | 0.00 | 87 | 1018.3 |
| 20260507061232 | 75 | 177 | 0.0 | 0.0 | 0.00 | 0.00 | 0.00 | 86 | 1018.6 |
| 20260507060731 | 75 | 179 | 0.0 | 0.0 | 0.00 | 0.00 | 0.00 | 86 | 1018.7 |
| 20260507060227 | 75 | 174 | 0.0 | 0.0 | 0.00 | 0.00 | 0.00 | 86 | 1018.9 |
| 20260507055723 | 75 | 168 | 0.0 | 0.0 | 0.00 | 0.00 | 0.00 | 86 | 1018.7 |
| 20260507055219 | 75 | 172 | 0.0 | 0.0 | 0.00 | 0.00 | 0.00 | 86 | 1018.8 |
| 20260507054715 | 75 | 176 | 0.0 | 1.0 | 0.00 | 0.00 | 0.00 | 85 | 1019.0 |
| 20260507054212 | 75 | 179 | 1.0 | 1.0 | 0.00 | 0.00 | 0.00 | 85 | 1018.9 |
| 20260507053710 | 75 | 202 | 0.0 | 0.0 | 0.00 | 0.00 | 0.00 | 85 | 1019.2 |
| 20260507053207 | 76 | 89 | 1.0 | 2.0 | 0.00 | 0.00 | 0.00 | 85 | 1019.2 |
| 20260507052706 | 76 | 152 | 1.0 | 1.0 | 0.00 | 0.00 | 0.00 | 85 | 1019.3 |
| 20260507052201 | 76 | 183 | 0.0 | 0.0 | 0.00 | 0.00 | 0.00 | 85 | 1019.3 |
| 20260507051700 | 76 | 184 | 0.0 | 0.0 | 0.00 | 0.00 | 0.00 | 85 | 1019.3 |
| 20260507051156 | 76 | 177 | 0.0 | 0.0 | 0.00 | 0.00 | 0.00 | 85 | 1019.4 |
| 20260507050653 | 76 | 176 | 0.0 | 0.0 | 0.00 | 0.00 | 0.00 | 86 | 1019.4 |
| 20260507050150 | 76 | 154 | 1.0 | 1.0 | 0.00 | 0.00 | 0.00 | 85 | 1019.4 |
| 20260507045647 | 76 | 169 | 1.0 | 1.0 | 0.00 | 0.00 | 0.00 | 85 | 1019.5 |
| 20260507045143 | 77 | 164 | 0.0 | 0.0 | 0.00 | 0.00 | 0.00 | 83 | 1019.8 |
| 20260507044640 | 77 | 153 | 1.0 | 2.0 | 0.00 | 0.00 | 0.00 | 84 | 1019.8 |
| 20260507044137 | 76 | 170 | 0.0 | 1.0 | 0.00 | 0.00 | 0.00 | 85 | 1019.9 |
| 20260507043633 | 77 | 176 | 1.0 | 1.0 | 0.00 | 0.00 | 0.00 | 85 | 1019.8 |
| 20260507043130 | 77 | 148 | 0.0 | 0.0 | 0.00 | 0.00 | 0.00 | 84 | 1019.7 |
| 20260507042626 | 77 | 177 | 0.0 | 0.0 | 0.00 | 0.00 | 0.00 | 85 | 1019.9 |
| 20260507042121 | 76 | 103 | 3.0 | 3.0 | 0.00 | 0.00 | 0.00 | 85 | 1020.0 |
| 20260507041619 | 77 | 189 | 1.0 | 2.0 | 0.00 | 0.00 | 0.00 | 84 | 1019.9 |
| 20260507041115 | 77 | 176 | 1.0 | 2.0 | 0.00 | 0.00 | 0.00 | 84 | 1020.0 |
| 20260507040612 | 78 | 152 | 1.0 | 1.0 | 0.00 | 0.00 | 0.00 | 83 | 1020.2 |
| 20260507040109 | 78 | 103 | 1.0 | 1.0 | 0.00 | 0.00 | 0.00 | 82 | 1020.0 |
| 20260507035605 | 78 | 134 | 1.0 | 1.0 | 0.00 | 0.00 | 0.00 | 83 | 1020.2 |
| 20260507035101 | 78 | 171 | 1.0 | 1.0 | 0.00 | 0.00 | 0.00 | 83 | 1020.1 |
| 20260507034558 | 78 | 152 | 1.0 | 1.0 | 0.00 | 0.00 | 0.00 | 83 | 1020.2 |
| 20260507034056 | 78 | 186 | 1.0 | 1.0 | 0.00 | 0.00 | 0.00 | 84 | 1020.1 |
| 20260507033554 | 77 | 177 | 1.0 | 1.0 | 0.00 | 0.00 | 0.00 | 84 | 1020.1 |
| 20260507033050 | 78 | 187 | 1.0 | 1.0 | 0.00 | 0.00 | 0.00 | 84 | 1020.4 |
| 20260507032548 | 78 | 157 | 1.0 | 1.0 | 0.00 | 0.00 | 0.00 | 83 | 1020.5 |
| 20260507032044 | 78 | 146 | 1.0 | 1.0 | 0.00 | 0.00 | 0.00 | 83 | 1020.1 |
| 20260507031540 | 78 | 172 | 1.0 | 1.0 | 0.00 | 0.00 | 0.00 | 83 | 1020.2 |
| 20260507031038 | 78 | 148 | 1.0 | 1.0 | 0.00 | 0.00 | 0.00 | 83 | 1020.3 |
| 20260507030534 | 78 | 151 | 1.0 | 1.0 | 0.00 | 0.00 | 0.00 | 83 | 1020.3 |
| 20260507030032 | 78 | 146 | 1.0 | 2.0 | 0.00 | 0.00 | 0.00 | 83 | 1020.4 |
| 20260507025529 | 78 | 164 | 2.0 | 2.0 | 0.00 | 0.00 | 0.00 | 83 | 1020.5 |
| 20260507025026 | 78 | 170 | 1.0 | 2.0 | 0.00 | 0.00 | 0.00 | 83 | 1020.4 |
| 20260507024524 | 79 | 165 | 3.0 | 5.0 | 0.00 | 0.00 | 0.00 | 82 | 1020.2 |
| 20260507024020 | 79 | 156 | 3.0 | 3.0 | 0.00 | 0.00 | 0.00 | 82 | 1020.5 |
| 20260507023516 | 79 | 122 | 3.0 | 3.0 | 0.00 | 0.00 | 0.00 | 82 | 1020.4 |
| 20260507023015 | 79 | 105 | 2.0 | 3.0 | 0.00 | 0.00 | 0.00 | 82 | 1020.5 |
| 20260507022511 | 79 | 134 | 2.0 | 3.0 | 0.00 | 0.00 | 0.00 | 82 | 1020.4 |
| 20260507022006 | 79 | 162 | 2.0 | 2.0 | 0.00 | 0.00 | 0.00 | 83 | 1020.3 |
| 20260507021502 | 79 | 137 | 2.0 | 2.0 | 0.00 | 0.00 | 0.00 | 84 | 1020.2 |
| 20260507020959 | 80 | 113 | 4.0 | 5.0 | 0.00 | 0.00 | 0.00 | 85 | 1020.3 |
| 20260507020456 | 79 | 131 | 1.0 | 2.0 | 0.00 | 0.00 | 0.00 | 87 | 1020.0 |
| 20260507015953 | 80 | 144 | 1.0 | 2.0 | 0.00 | 0.00 | 0.00 | 88 | 1020.0 |
| 20260507015451 | 80 | 152 | 2.0 | 3.0 | 0.00 | 0.00 | 0.00 | 88 | 1020.1 |
| 20260507014948 | 80 | 122 | 1.0 | 2.0 | 0.00 | 0.00 | 0.00 | 88 | 1019.5 |
| 20260507014445 | 80 | 109 | 3.0 | 3.0 | 0.00 | 0.00 | 0.00 | 88 | 1019.6 |
| 20260507013941 | 80 | 156 | 1.0 | 2.0 | 0.00 | 0.00 | 0.00 | 87 | 1019.9 |
| 20260507013437 | 80 | 183 | 1.0 | 1.0 | 0.00 | 0.00 | 0.00 | 88 | 1019.4 |
| 20260507012935 | 80 | 210 | 1.0 | 1.0 | 0.00 | 0.00 | 0.00 | 89 | 1019.5 |
| 20260507012432 | 80 | 174 | 1.0 | 1.0 | 0.00 | 0.00 | 0.00 | 88 | 1019.5 |
| 20260507011928 | 80 | 121 | 2.0 | 2.0 | 0.00 | 0.00 | 0.00 | 89 | 1019.5 |
| 20260507011426 | 81 | 185 | 0.0 | 1.0 | 0.00 | 0.00 | 0.00 | 88 | 1019.3 |
| 20260507010925 | 81 | 179 | 2.0 | 2.0 | 0.00 | 0.00 | 0.00 | 88 | 1019.2 |
| 20260507010421 | 81 | 195 | 1.0 | 1.0 | 0.00 | 0.00 | 0.00 | 88 | 1019.1 |
| 20260507005918 | 81 | 201 | 0.0 | 0.0 | 0.00 | 0.00 | 0.00 | 88 | 1019.2 |
| 20260507005415 | 81 | 182 | 2.0 | 2.0 | 0.00 | 0.00 | 0.00 | 88 | 1019.2 |
| 20260507004912 | 81 | 226 | 1.0 | 1.0 | 0.00 | 0.00 | 0.00 | 88 | 1018.9 |
| 20260507004408 | 81 | 172 | 2.0 | 2.0 | 0.00 | 0.00 | 0.00 | 88 | 1019.0 |
| 20260507003906 | 81 | 201 | 0.0 | 0.0 | 0.00 | 0.00 | 0.00 | 87 | 1019.0 |
| 20260507003401 | 81 | 188 | 2.0 | 2.0 | 0.00 | 0.00 | 0.00 | 88 | 1018.8 |
| 20260507002857 | 81 | 229 | 0.0 | 0.0 | 0.00 | 0.00 | 0.00 | 88 | 1018.9 |
| 20260507002353 | 82 | 205 | 1.0 | 2.0 | 0.00 | 0.00 | 0.00 | 87 | 1018.9 |
| 20260507001850 | 81 | 209 | 0.0 | 1.0 | 0.00 | 0.00 | 0.00 | 87 | 1018.9 |
| 20260507001347 | 81 | 176 | 1.0 | 1.0 | 0.00 | 0.00 | 0.00 | 87 | 1018.7 |
| 20260507000843 | 81 | 233 | 1.0 | 1.0 | 0.00 | 0.00 | 0.00 | 87 | 1018.7 |
| 20260507000339 | 82 | 224 | 3.0 | 3.0 | 0.00 | 0.00 | 0.00 | 87 | 1018.3 |
| 20260506235836 | 82 | 318 | 1.0 | 1.0 | 0.00 | 0.00 | 0.00 | 87 | 1018.6 |
| 20260506235333 | 82 | 202 | 1.0 | 1.0 | 0.00 | 0.00 | 0.00 | 87 | 1018.5 |
| 20260506234828 | 82 | 237 | 1.0 | 2.0 | 0.00 | 0.00 | 0.00 | 86 | 1018.5 |
| 20260506234326 | 82 | 193 | 1.0 | 1.0 | 0.00 | 0.00 | 0.00 | 86 | 1018.1 |
| 20260506233824 | 82 | 204 | 1.0 | 2.0 | 0.00 | 0.00 | 0.00 | 86 | 1017.9 |
| 20260506233319 | 82 | 224 | 1.0 | 1.0 | 0.00 | 0.00 | 0.00 | 85 | 1018.1 |
| 20260506232817 | 83 | 222 | 3.0 | 5.0 | 0.00 | 0.00 | 0.00 | 85 | 1018.2 |
| 20260506232312 | 83 | 258 | 1.0 | 1.0 | 0.00 | 0.00 | 0.00 | 85 | 1017.8 |
| 20260506231809 | 83 | 260 | 1.0 | 2.0 | 0.00 | 0.00 | 0.00 | 84 | 1017.8 |
| 20260506231307 | 83 | 196 | 1.0 | 2.0 | 0.00 | 0.00 | 0.00 | 84 | 1017.8 |
| 20260506230804 | 84 | 259 | 0.0 | 1.0 | 0.00 | 0.00 | 0.00 | 83 | 1017.7 |
| 20260506230301 | 84 | 223 | 2.0 | 2.0 | 0.00 | 0.00 | 0.00 | 83 | 1017.8 |
| 20260506225757 | 85 | 281 | 3.0 | 3.0 | 0.00 | 0.00 | 0.00 | 81 | 1017.5 |
| 20260506225254 | 85 | 237 | 2.0 | 2.0 | 0.00 | 0.00 | 0.00 | 79 | 1017.4 |
| 20260506224750 | 86 | 215 | 3.0 | 5.0 | 0.00 | 0.00 | 0.00 | 78 | 1017.6 |
| 20260506224248 | 87 | 263 | 1.0 | 2.0 | 0.00 | 0.00 | 0.00 | 75 | 1017.2 |
| 20260506223744 | 88 | 211 | 1.0 | 2.0 | 0.00 | 0.00 | 0.00 | 73 | 1017.1 |
| 20260506223240 | 88 | 286 | 2.0 | 2.0 | 0.00 | 0.00 | 0.00 | 72 | 1017.1 |
| 20260506222737 | 88 | 257 | 1.0 | 1.0 | 0.00 | 0.00 | 0.00 | 71 | 1016.8 |
| 20260506222232 | 88 | 235 | 0.0 | 1.0 | 0.00 | 0.00 | 0.00 | 71 | 1017.2 |
| 20260506221731 | 88 | 151 | 0.0 | 1.0 | 0.00 | 0.00 | 0.00 | 73 | 1017.0 |
| 20260506221228 | 88 | 239 | 0.0 | 0.0 | 0.00 | 0.00 | 0.00 | 74 | 1017.0 |
| 20260506220725 | 88 | 142 | 0.0 | 0.0 | 0.00 | 0.00 | 0.00 | 73 | 1016.9 |
| 20260506220220 | 87 | 106 | 1.0 | 1.0 | 0.00 | 0.00 | 0.00 | 75 | 1017.1 |
| 20260506215717 | 87 | 140 | 1.0 | 2.0 | 0.00 | 0.00 | 0.00 | 75 | 1016.7 |
| 20260506215213 | 87 | 352 | 2.0 | 2.0 | 0.00 | 0.00 | 0.00 | 76 | 1016.9 |
| 20260506214709 | 88 | 55 | 1.0 | 1.0 | 0.00 | 0.00 | 0.00 | 74 | 1016.7 |
| 20260506214207 | 89 | 138 | 1.0 | 1.0 | 0.00 | 0.00 | 0.00 | 72 | 1016.7 |
| 20260506213705 | 89 | 17 | 1.0 | 2.0 | 0.00 | 0.00 | 0.00 | 72 | 1016.8 |
| 20260506213202 | 88 | 164 | 1.0 | 1.0 | 0.00 | 0.00 | 0.00 | 74 | 1016.9 |
| 20260506212659 | 88 | 119 | 1.0 | 1.0 | 0.00 | 0.00 | 0.00 | 73 | 1016.5 |
| 20260506212154 | 88 | 69 | 2.0 | 2.0 | 0.00 | 0.00 | 0.00 | 73 | 1016.7 |
| 20260506211650 | 88 | 87 | 2.0 | 3.0 | 0.00 | 0.00 | 0.00 | 73 | 1016.4 |
| 20260506211146 | 89 | 100 | 2.0 | 3.0 | 0.00 | 0.00 | 0.00 | 71 | 1016.6 |
| 20260506210643 | 89 | 33 | 3.0 | 6.0 | 0.00 | 0.00 | 0.00 | 72 | 1016.4 |
| 20260506210140 | 88 | 118 | 2.0 | 3.0 | 0.00 | 0.00 | 0.00 | 71 | 1016.5 |
| 20260506205638 | 88 | 93 | 1.0 | 2.0 | 0.00 | 0.00 | 0.00 | 72 | 1016.8 |
| 20260506205132 | 89 | 131 | 3.0 | 3.0 | 0.00 | 0.00 | 0.00 | 72 | 1016.5 |
| 20260506204630 | 89 | 145 | 0.0 | 1.0 | 0.00 | 0.00 | 0.00 | 72 | 1016.4 |
| 20260506204127 | 90 | 53 | 3.0 | 6.0 | 0.00 | 0.00 | 0.00 | 72 | 1016.5 |
| 20260506203625 | 89 | 33 | 3.0 | 5.0 | 0.00 | 0.00 | 0.00 | 71 | 1016.5 |
| 20260506203121 | 89 | 39 | 6.0 | 7.0 | 0.00 | 0.00 | 0.00 | 71 | 1016.6 |
| 20260506202620 | 89 | 27 | 5.0 | 6.0 | 0.00 | 0.00 | 0.00 | 71 | 1016.5 |
| 20260506202115 | 89 | 81 | 6.0 | 7.0 | 0.00 | 0.00 | 0.00 | 71 | 1016.6 |
| 20260506201613 | 89 | 59 | 5.0 | 7.0 | 0.00 | 0.00 | 0.00 | 71 | 1016.7 |
| 20260506201109 | 90 | 47 | 5.0 | 7.0 | 0.00 | 0.00 | 0.00 | 69 | 1016.8 |
| 20260506200606 | 90 | 159 | 1.0 | 2.0 | 0.00 | 0.00 | 0.00 | 70 | 1016.5 |
| 20260506195559 | 89 | 336 | 1.0 | 1.0 | 0.00 | 0.00 | 0.00 | 72 | 1017.0 |
| 20260506195055 | 89 | 35 | 3.0 | 6.0 | 0.00 | 0.00 | 0.00 | 73 | 1016.7 |
| 20260506194553 | 89 | 88 | 6.0 | 8.0 | 0.00 | 0.00 | 0.00 | 71 | 1017.0 |
| 20260506194049 | 89 | 34 | 7.0 | 8.0 | 0.00 | 0.00 | 0.00 | 71 | 1016.9 |
| 20260506193547 | 89 | 10 | 5.0 | 6.0 | 0.00 | 0.00 | 0.00 | 70 | 1017.0 |